FW1349 Weather Reports


Display with metric or nautical units.
time (UTC)temp
F
wind
direction
speed
MPH
gust
MPH
rain 1hr
in
rain 24hr
in
rain mn
in
humidity
%
barometer
mb
20260903222015 90 270 2.0 12.0 0.00 0.05 0.05 56
20260903221036 90 248 3.0 9.0 0.00 0.05 0.05 55
20260903220015 90 225 3.0 8.0 0.00 0.05 0.05 56
20260903215015 90 225 2.0 9.0 0.00 0.05 0.05 57
20260903214017 90 248 3.0 10.0 0.00 0.05 0.05 57
20260903213018 89 270 2.0 5.0 0.00 0.05 0.05 58
20260903212017 88 248 1.0 7.0 0.00 0.05 0.05 60
20260903211017 88 45 2.0 6.0 0.00 0.05 0.05 60
20260903210018 88 270 2.0 9.0 0.00 0.05 0.05 59
20260903205017 88 315 1.0 7.0 0.00 0.05 0.05 58
20260903204038 88 338 2.0 7.0 0.00 0.05 0.05 57
20260903203017 89 158 1.0 5.0 0.00 0.05 0.05 56
20260903202018 89 270 3.0 13.0 0.00 0.05 0.05 55
20260903201017 90 248 2.0 7.0 0.00 0.05 0.05 55
20260903200038 89 315 2.0 7.0 0.00 0.05 0.05 58
20260903195018 89 293 2.0 8.0 0.00 0.05 0.05 60
20260903194017 88 203 2.0 7.0 0.00 0.05 0.05 59
20260903193017 87 45 2.0 8.0 0.00 0.05 0.05 64
20260903192017 86 293 1.0 5.0 0.00 0.05 0.05 72
20260903191037 84 248 1.0 3.0 0.01 0.05 0.05 80
20260903190017 82 113 1.0 2.0 0.04 0.05 0.05 85
20260903185016 81 68 1.0 3.0 0.05 0.05 0.05 86
20260903184016 80 0.0 1.0 0.05 0.05 0.05 87
20260903183017 80 0.0 2.0 0.05 0.05 0.05 84
20260903182017 80 68 1.0 2.0 0.05 0.05 0.05 82
20260903181016 80 0.0 2.0 0.04 0.04 0.04 79
20260903180016 81 68 1.0 2.0 0.01 0.01 0.01 75
20260903175017 82 68 1.0 3.0 0.00 0.00 0.00 73
20260903174037 82 0.0 2.0 0.00 0.00 0.00 72
20260903173016 81 0.0 3.0 0.00 0.00 0.00 73
20260903172017 81 338 2.0 4.0 0.00 0.00 0.00 74
20260903171017 80 0.0 2.0 0.00 0.00 0.00 78
20260903170037 80 270 1.0 2.0 0.00 0.00 0.00 77
20260903165016 80 0.0 3.0 0.00 0.00 0.00 76
20260903164017 80 0.0 1.0 0.00 0.00 0.00 75
20260903163016 80 158 1.0 2.0 0.00 0.00 0.00 75
20260903162017 80 0.0 2.0 0.00 0.00 0.00 76
20260903161016 80 158 1.0 3.0 0.00 0.00 0.00 75
20260903160016 79 248 1.0 3.0 0.00 0.00 0.00 74
20260903155016 79 135 1.0 3.0 0.00 0.00 0.00 75
20260903154016 79 135 1.0 2.0 0.00 0.00 0.00 74
20260903153016 79 180 1.0 3.0 0.00 0.00 0.00 73
20260903152016 80 45 1.0 4.0 0.00 0.00 0.00 73
20260903151015 80 0.0 1.0 0.00 0.00 0.00 73
20260903150016 80 248 1.0 3.0 0.00 0.00 0.00 71
20260903145036 80 0.0 2.0 0.00 0.00 0.00 74
20260903144015 78 0.0 3.0 0.00 0.00 0.00 77
20260903143016 77 90 1.0 2.0 0.00 0.00 0.00 80
20260903142036 76 0.0 1.0 0.00 0.00 0.00 81
20260903141015 75 23 1.0 2.0 0.00 0.00 0.00 82
20260903140015 74 0.0 2.0 0.00 0.00 0.00 83
20260903135016 74 0.0 3.0 0.00 0.00 0.00 83
20260903134015 74 0 1.0 3.0 0.00 0.00 0.00 85
20260903133018 74 203 1.0 4.0 0.00 0.00 0.00 85
20260903132017 73 0.0 2.0 0.00 0.00 0.00 87
20260903131017 73 0.0 2.0 0.00 0.00 0.00 87
20260903130017 73 0.0 0.0 0.00 0.00 0.00 87
20260903125018 73 0.0 2.0 0.00 0.00 0.00 87
20260903124017 73 0.0 3.0 0.00 0.00 0.00 88
20260903123017 73 0.0 1.0 0.00 0.00 0.00 88
20260903122017 74 0.0 2.0 0.00 0.00 0.00 89
20260903121038 74 0.0 0.0 0.00 0.00 0.00 89
20260903120017 74 0.0 0.0 0.00 0.00 0.00 89
20260903115057 74 90 1.0 3.0 0.00 0.00 0.00 89
20260903114018 74 0.0 0.0 0.00 0.00 0.00 90
20260903113017 74 0.0 1.0 0.00 0.00 0.00 90
20260903112016 74 0.0 0.0 0.00 0.00 0.00 89
20260903111017 74 0.0 2.0 0.00 0.00 0.00 89
20260903110037 74 203 1.0 3.0 0.00 0.00 0.00 89
20260903105016 74 0.0 2.0 0.00 0.00 0.00 89
20260903104017 74 0.0 2.0 0.00 0.00 0.00 89
20260903103038 73 0.0 1.0 0.00 0.00 0.00 88
20260903102016 73 0.0 0.0 0.00 0.00 0.00 88
20260903101017 74 0.0 0.0 0.00 0.00 0.00 88
20260903100016 74 0.0 1.0 0.00 0.00 0.00 88
20260903095016 74 0.0 0.0 0.00 0.00 0.00 87
20260903094017 74 0.0 0.0 0.00 0.00 0.00 87
20260903093016 74 0.0 0.0 0.00 0.00 0.00 87
20260903092017 74 0.0 0.0 0.00 0.00 0.00 87
20260903091016 74 0.0 0.0 0.00 0.00 0.00 86
20260903090016 74 0.0 0.0 0.00 0.00 0.00 86
20260903085037 74 0.0 0.0 0.00 0.00 0.00 86
20260903084057 74 0.0 0.0 0.00 0.00 0.00 85
20260903083017 74 0.0 0.0 0.00 0.00 0.00 85
20260903082017 75 0.0 0.0 0.00 0.00 0.00 84
20260903081016 75 0.0 0.0 0.00 0.00 0.00 85
20260903080016 75 0.0 0.0 0.00 0.04 0.00 84
20260903075016 75 0.0 0.0 0.00 0.04 0.00 84
20260903074057 75 0.0 0.0 0.00 0.04 0.00 83
20260903073016 76 0.0 0.0 0.00 0.04 0.00 83
20260903072016 76 0.0 0.0 0.00 0.04 0.00 83
20260903071037 76 0.0 0.0 0.00 0.04 0.00 83
20260903070017 76 0.0 0.0 0.00 0.07 0.00 82
20260903065016 76 0.0 0.0 0.00 0.07 0.00 82
20260903064015 76 0.0 0.0 0.00 0.07 0.00 82
20260903063037 77 0.0 0.0 0.00 0.07 0.00 82
20260903062015 77 0.0 0.0 0.00 0.07 0.00 81
20260903061016 77 0.0 0.0 0.00 0.07 0.00 81
20260903060016 77 0.0 1.0 0.00 0.07 0.00 80
20260903055015 77 0.0 0.0 0.00 0.07 0.00 80
20260903054015 77 0.0 0.0 0.00 0.07 0.00 80
20260903053015 78 0.0 1.0 0.00 0.07 0.00 80
20260903052017 78 0.0 0.0 0.00 0.07 0.00 80
20260903051038 78 0.0 1.0 0.00 0.07 0.00 80
20260903050016 78 0.0 1.0 0.00 0.07 0.07 79
20260903045017 78 0.0 1.0 0.00 0.07 0.07 79
20260903044017 78 0.0 0.0 0.00 0.07 0.07 78
20260903043017 78 0.0 0.0 0.00 0.07 0.07 78
20260903042016 78 0.0 0.0 0.00 0.07 0.07 77
20260903041016 78 0.0 0.0 0.00 0.07 0.07 77
20260903040017 79 0.0 0.0 0.00 0.07 0.07 76
20260903035016 79 0.0 0.0 0.00 0.07 0.07 76
20260903034016 79 0.0 0.0 0.00 0.07 0.07 75
20260903033017 79 0.0 0.0 0.00 0.07 0.07 75
20260903032016 79 0.0 0.0 0.00 0.07 0.07 74
20260903031017 80 0.0 0.0 0.00 0.07 0.07 73
20260903030111 80 0.0 0.0 0.00 0.07 0.07 72
20260903025057 80 0.0 0.0 0.00 0.07 0.07 71
20260903024016 81 0.0 0.0 0.00 0.07 0.07 71
20260903023016 81 0.0 0.0 0.00 0.07 0.07 70
20260903022016 81 0.0 0.0 0.00 0.07 0.07 69
20260903021057 82 0.0 0.0 0.00 0.07 0.07 69
20260903020036 82 0.0 0.0 0.00 0.07 0.07 68
20260903015016 82 0.0 0.0 0.00 0.07 0.07 67
20260903014016 83 0.0 0.0 0.00 0.07 0.07 66
20260903013017 84 0.0 0.0 0.00 0.07 0.07 64
20260903012015 84 0.0 0.0 0.00 0.07 0.07 63
20260903011036 85 0.0 0.0 0.00 0.07 0.07 63
20260903010016 85 0.0 0.0 0.00 0.07 0.07 62
20260903005016 86 0.0 0.0 0.00 0.07 0.07 60
20260903004016 86 0.0 0.0 0.00 0.07 0.07 59
20260903003017 87 0.0 0.0 0.00 0.07 0.07 58
20260903002035 87 0.0 0.0 0.00 0.07 0.07 57
20260903001016 88 0.0 0.0 0.00 0.07 0.07 56
20260903000015 89 0.0 0.0 0.00 0.07 0.07 54
20260902235015 90 0.0 0.0 0.00 0.07 0.07 53
20260902234016 90 0.0 0.0 0.00 0.07 0.07 52
20260902233015 91 0.0 0.0 0.00 0.07 0.07 51
20260902232017 92 0.0 1.0 0.00 0.07 0.07 49
20260902231017 93 0.0 2.0 0.00 0.07 0.07 48
20260902230038 93 203 1.0 2.0 0.00 0.07 0.07 46
20260902225017 93 0.0 2.0 0.00 0.07 0.07 47
20260902224017 93 0.0 2.0 0.00 0.07 0.07 48
20260902223017 94 248 1.0 3.0 0.00 0.07 0.07 47